Date,TemperatureHighF,TemperatureAvgF,TemperatureLowF,DewpointHighF,DewpointAvgF,DewpointLowF,HumidityHigh,HumidityAvg,HumidityLow,PressureMaxIn,PressureMinIn,WindSpeedMaxMPH,WindSpeedAvgMPH,GustSpeedMaxMPH,PrecipitationSumIn
2013-5-1,81.6,70.3,61.3,65.7,58.7,50.3,81,68,47,30.15,29.94,8,3,13,0.00
2013-5-2,63.8,46.8,33.3,58.2,43.1,30.9,91,87,80,30.45,30.11,9,4,20,0.37
2013-5-3,48.7,40.1,33.0,36.7,33.3,30.7,91,78,53,30.42,30.11,11,5,26,0.43
2013-5-4,46.0,40.6,36.8,39.4,36.1,33.9,90,84,72,30.17,30.00,8,2,19,0.30
2013-5-5,57.0,47.6,35.4,49.5,42.7,32.5,90,83,71,30.25,30.16,5,1,15,0.01
2013-5-6,62.5,53.4,47.0,54.4,48.6,43.3,88,84,73,30.24,30.14,4,1,11,0.00
2013-5-7,76.5,61.3,44.5,59.1,50.9,41.5,92,71,45,30.22,30.08,3,0,7,0.01
2013-5-8,77.4,65.5,58.1,63.6,56.3,50.7,85,73,52,30.17,29.98,10,2,16,0.08
2013-5-9,74.8,65.0,59.0,64.7,58.7,54.8,86,80,65,30.07,29.96,11,2,28,2.28
2013-5-10,68.4,61.9,52.4,59.7,55.3,47.4,84,79,68,30.17,30.00,8,2,16,0.33
2013-5-11,73.1,59.3,46.4,58.6,47.3,38.5,83,67,34,30.33,30.17,7,1,18,0.00
2013-5-12,69.2,54.1,40.3,50.7,40.5,32.1,84,64,32,30.41,30.26,4,0,9,0.02
2013-5-13,64.2,53.6,50.4,50.0,44.9,43.3,80,73,59,30.29,30.24,10,1,18,0.00
2013-5-14,84.3,71.8,59.3,64.1,56.9,51.3,77,61,36,30.15,30.02,7,4,14,0.00
2013-5-15,74.3,67.3,61.5,67.0,59.5,52.6,83,76,67,30.06,29.93,9,4,17,0.34
2013-5-16,69.1,64.8,61.4,61.3,57.3,53.0,79,76,74,29.98,29.91,5,1,10,0.40
2013-5-17,80.7,69.6,60.0,67.9,59.9,51.3,77,71,59,30.03,29.95,3,0,8,0.01
2013-5-18,83.8,75.7,66.1,74.6,66.5,56.5,76,73,68,30.00,29.84,8,3,13,0.00
2013-5-19,84.5,77.2,68.1,70.3,66.1,60.6,77,69,54,29.94,29.69,11,6,20,0.02
2013-5-20,77.0,69.5,64.2,68.1,60.1,53.3,78,72,65,29.89,29.69,10,2,18,0.09
2013-5-21,65.9,62.0,58.6,55.8,51.3,46.9,72,68,65,29.99,29.71,9,2,25,0.46
2013-5-22,74.3,63.9,52.5,61.4,52.0,41.5,72,65,59,30.04,29.90,5,1,14,0.00
2013-5-23,73.3,64.4,55.4,62.3,53.0,42.6,72,67,58,30.26,30.04,3,1,9,0.00
2013-5-24,77.9,66.7,57.4,65.2,56.0,46.7,72,69,63,30.36,30.23,8,3,17,0.00
2013-5-25,80.3,70.2,59.9,68.5,59.8,51.2,73,70,65,30.32,30.13,8,3,13,0.00
2013-5-26,80.0,73.2,67.4,68.6,61.5,53.1,71,67,60,30.20,30.04,9,3,17,0.00
2013-5-27,81.6,74.6,68.1,69.6,62.4,52.6,71,66,55,30.06,29.86,11,6,18,0.00
2013-5-28,80.5,74.5,70.9,69.0,63.7,59.5,72,69,65,29.94,29.82,12,6,20,0.00
2013-5-29,78.5,74.4,70.4,68.2,64.4,59.7,72,71,69,29.95,29.80,8,4,16,0.00
2013-5-30,77.8,69.3,63.4,65.8,54.5,45.6,72,59,48,29.92,29.78,13,4,20,1.91
2013-5-31,83.3,75.8,64.6,70.3,58.7,46.8,66,56,47,29.89,29.72,10,4,19,0.05